CW3330 Weather Reports


time (UTC)temp
C
wind
direction
speed
KPH
gust
KPH
rain 1hr
cm
rain 24hr
cm
rain mn
cm
humidity
%
barometer
mb
20260509120514 16 51 11.3 29.0 0.00 0.00 0.00 62 1020.3
20260509115507 16 59 14.5 29.0 0.00 0.00 0.00 56 1020.4
20260509114506 15 19 12.9 22.5 0.00 0.00 0.00 62 1020.4
20260509113512 15 25 11.3 20.9 0.00 0.00 0.00 57 1020.7
20260509112506 16 65 16.1 27.4 0.00 0.00 0.00 61 1020.9
20260509111506 15 340 11.3 22.5 0.00 0.00 0.00 53 1020.9
20260509110513 16 12 9.7 17.7 0.00 0.00 0.00 53 1021.0
20260509105945 15 73 4.8 17.7 0.00 0.00 0.00 53 1021.0
20260509104505 15 86 8.0 17.7 0.00 0.00 0.00 52 1021.0
20260509103958 15 65 8.0 20.9 0.00 0.00 0.00 58 1021.2
20260509102507 15 42 9.7 17.7 0.00 0.00 0.00 57 1021.2
20260509101506 15 36 11.3 17.7 0.00 0.00 0.00 55 1021.4
20260509100513 14 76 4.8 20.9 0.00 0.00 0.00 51 1021.5
20260509095506 14 26 9.7 22.5 0.00 0.00 0.00 56 1021.5
20260509094953 13 16 8.0 17.7 0.00 0.00 0.00 56 1021.4
20260509093513 13 96 1.6 16.1 0.00 0.00 0.00 57 1021.4
20260509092949 13 187 4.8 19.3 0.00 0.00 0.00 61 1021.3
20260509091521 13 94 11.3 19.3 0.00 0.00 0.00 58 1021.4
20260509090511 13 86 6.4 22.5 0.00 0.00 0.00 60 1021.5
20260509085506 13 12 9.7 17.7 0.00 0.00 0.00 61 1021.3
20260509084506 13 61 9.7 19.3 0.00 0.00 0.00 59 1021.4
20260509083514 12 51 8.0 17.7 0.00 0.00 0.00 58 1021.5
20260509082510 12 75 4.8 16.1 0.00 0.00 0.00 60 1021.6
20260509081513 12 34 9.7 19.3 0.00 0.00 0.00 61 1021.6
20260509080517 12 142 8.0 17.7 0.00 0.00 0.00 60 1021.6
20260509075507 12 44 4.8 17.7 0.00 0.00 0.00 62 1021.7
20260509074506 11 71 8.0 17.7 0.00 0.00 0.00 64 1021.6
20260509073512 11 71 4.8 16.1 0.00 0.00 0.00 66 1021.6
20260509072507 11 73 6.4 17.7 0.00 0.00 0.00 69 1021.8
20260509071946 10 113 3.2 14.5 0.00 0.00 0.00 69 1021.8
20260509070512 10 46 9.7 17.7 0.00 0.00 0.00 71 1021.9
20260509065506 10 90 4.8 16.1 0.00 0.00 0.00 73 1021.9
20260509064508 10 53 6.4 19.3 0.00 0.00 0.00 75 1021.9
20260509063512 9 76 3.2 17.7 0.00 0.00 0.00 78 1021.8
20260509062507 9 87 8.0 19.3 0.00 0.00 0.00 78 1021.9
20260509061505 8 105 6.4 22.5 0.00 0.00 0.00 79 1021.8
20260509054512 8 74 4.8 12.9 0.00 0.00 0.00 81 1021.8
20260509053512 8 81 8.0 17.7 0.00 0.00 0.00 81 1021.9
20260509052940 7 92 4.8 12.9 0.00 0.00 0.00 82 1021.9
20260509051506 7 92 3.2 12.9 0.00 0.00 0.00 82 1021.9
20260509050511 6 76 3.2 6.4 0.00 0.00 0.00 83 1021.9
20260509045948 6 80 3.2 8.0 0.00 0.00 0.00 83 1021.9
20260509044506 6 81 1.6 6.4 0.00 0.00 0.00 83 1021.8
20260509043526 5 84 3.2 6.4 0.00 0.00 0.00 84 1021.8
20260509042506 5 84 3.2 4.8 0.00 0.00 0.00 84 1021.9
20260509041508 5 84 1.6 4.8 0.00 0.00 0.00 85 1021.8
20260509040929 5 85 3.2 4.8 0.00 0.00 0.00 85 1021.9
20260509035449 5 85 1.6 4.8 0.00 0.00 0.00 85 1021.9
20260509034448 5 85 3.2 4.8 0.00 0.00 0.00 85 1022.0
20260509033445 5 86 1.6 4.8 0.00 0.00 0.00 84 1021.9
20260509032441 5 86 3.2 4.8 0.00 0.00 0.00 84 1021.9
20260509031439 5 87 0.0 0.0 0.00 0.00 0.00 85 1022.1
20260509030924 5 87 0.0 4.8 0.00 0.00 0.00 84 1022.1
20260509025432 5 88 3.2 4.8 0.00 0.00 0.00 84 1022.2
20260509024908 5 88 3.2 6.4 0.00 0.00 0.00 84 1022.2
20260509023431 5 87 3.2 4.8 0.00 0.00 0.00 83 1022.1
20260509022430 5 87 3.2 6.4 0.00 0.00 0.00 84 1022.1
20260509021430 5 86 4.8 8.0 0.00 0.00 0.00 83 1022.0
20260509020440 6 80 3.2 11.3 0.00 0.00 0.00 82 1022.0
20260509015438 6 103 3.2 6.4 0.00 0.00 0.00 82 1022.0
20260509014433 6 92 4.8 12.9 0.00 0.00 0.00 82 1022.0
20260509013430 6 98 3.2 11.3 0.00 0.00 0.00 81 1022.1
20260509012431 6 95 3.2 6.4 0.00 0.00 0.00 81 1022.1
20260509011430 6 96 4.8 11.3 0.00 0.00 0.00 80 1022.1
20260509010430 6 94 3.2 8.0 0.00 0.00 0.00 80 1022.0
20260509005430 6 92 3.2 11.3 0.00 0.00 0.00 80 1021.9
20260509004430 6 84 3.2 11.3 0.00 0.00 0.00 80 1021.9
20260509003430 6 88 4.8 11.3 0.00 0.00 0.00 79 1021.9
20260509002423 6 92 4.8 6.4 0.00 0.00 0.00 79 1021.8
20260509001422 6 92 4.8 11.3 0.00 0.00 0.00 78 1021.8
20260509000425 7 88 4.8 11.3 0.00 0.00 0.00 78 1021.8
20260508235414 7 90 3.2 11.3 0.00 0.00 0.00 78 1021.9
20260508234858 7 84 3.2 12.9 0.00 0.00 0.00 78 1021.9
20260508233412 7 85 4.8 8.0 0.00 0.00 0.00 79 1021.8
20260508232408 7 83 4.8 8.0 0.00 0.00 0.00 79 1022.0
20260508231405 7 90 3.2 6.4 0.00 0.00 0.00 79 1022.0
20260508230419 7 83 3.2 6.4 0.00 0.00 0.00 79 1022.1
20260508225848 7 86 3.2 6.4 0.00 0.00 0.00 80 1022.0
20260508224405 7 85 3.2 8.0 0.00 0.00 0.00 80 1022.0
20260508223403 7 84 3.2 8.0 0.00 0.00 0.00 79 1021.9
20260508222403 7 90 3.2 6.4 0.00 0.00 0.00 79 1022.0
20260508221405 7 92 3.2 6.4 0.00 0.00 0.00 79 1022.0
20260508220405 8 90 3.2 6.4 0.00 0.00 0.00 78 1022.0
20260508215403 8 91 4.8 6.4 0.00 0.00 0.00 78 1022.0
20260508214403 8 86 3.2 6.4 0.00 0.00 0.00 77 1021.9
20260508213842 8 87 3.2 8.0 0.00 0.00 0.00 76 1021.9
20260508212403 8 76 4.8 8.0 0.00 0.00 0.00 76 1021.9
20260508211404 8 83 3.2 8.0 0.00 0.00 0.00 75 1021.9
20260508210404 8 80 4.8 8.0 0.00 0.00 0.00 74 1021.8
20260508205403 8 69 3.2 8.0 0.00 0.00 0.00 73 1021.9
20260508204402 9 62 3.2 11.3 0.00 0.00 0.00 72 1021.8
20260508203358 9 74 4.8 8.0 0.00 0.00 0.00 71 1021.8
20260508202356 9 83 4.8 12.9 0.00 0.00 0.00 70 1021.8
20260508201353 9 86 4.8 12.9 0.00 0.00 0.00 70 1021.8
20260508200834 10 86 4.8 14.5 0.00 0.00 0.00 68 1021.7
20260508195345 10 87 6.4 19.3 0.00 0.00 0.00 67 1021.7
20260508194342 10 78 8.0 16.1 0.00 0.00 0.00 66 1021.7
20260508193340 10 82 6.4 14.5 0.00 0.00 0.00 66 1021.6
20260508192336 10 57 3.2 14.5 0.00 0.00 0.00 65 1021.4
20260508191332 11 88 4.8 17.7 0.00 0.00 0.00 64 1021.4
20260508190808 11 65 6.4 16.1 0.00 0.00 0.00 63 1021.3
20260508185331 11 75 4.8 17.7 0.00 0.00 0.00 62 1021.2
20260508184333 11 61 8.0 17.7 0.00 0.00 0.00 60 1021.1
20260508183331 11 28 9.7 20.9 0.00 0.00 0.00 59 1021.0
20260508182332 12 78 4.8 17.7 0.00 0.00 0.00 54 1020.9
20260508181331 12 55 9.7 20.9 0.00 0.00 0.00 57 1020.7
20260508180331 12 55 9.7 25.7 0.00 0.00 0.00 56 1020.7
20260508175804 12 61 9.7 22.5 0.00 0.00 0.00 56 1020.6
20260508174332 12 50 14.5 27.4 0.00 0.00 0.00 54 1020.5
20260508173811 13 95 14.5 30.6 0.00 0.00 0.00 54 1020.5
20260508172330 13 33 9.7 27.4 0.00 0.00 0.00 53 1020.4
20260508170331 13 83 12.9 30.6 0.00 0.00 0.00 54 1020.3
20260508165330 13 129 9.7 27.4 0.00 0.00 0.00 54 1020.1
20260508164330 14 36 11.3 27.4 0.00 0.00 0.00 54 1020.1
20260508163331 14 62 17.7 32.2 0.00 0.00 0.00 53 1020.1
20260508162330 15 101 9.7 29.0 0.00 0.00 0.00 53 1020.1
20260508161815 15 155 14.5 33.8 0.00 0.00 0.00 53 1020.1
20260508160327 15 38 16.1 30.6 0.00 0.00 0.00 49 1020.1
20260508155805 16 76 16.1 30.6 0.00 0.00 0.00 53 1020.0
20260508154320 15 69 12.9 25.7 0.00 0.00 0.00 56 1019.9
20260508153317 16 49 14.5 29.0 0.00 0.00 0.00 54 1020.0
20260508152318 16 28 12.9 25.7 0.00 0.00 0.00 51 1020.0
20260508151316 16 40 12.9 25.7 0.00 0.00 0.00 52 1020.1
20260508150313 16 63 14.5 27.4 0.00 0.00 0.00 51 1020.1
20260508145752 16 40 14.5 29.0 0.00 0.00 0.00 48 1020.1
20260508144310 16 76 14.5 32.2 0.00 0.00 0.00 46 1020.3
20260508143306 16 39 14.5 29.0 0.00 0.00 0.00 45 1020.2
20260508142306 16 49 12.9 32.2 0.00 0.00 0.00 42 1020.2
20260508141303 17 9 11.3 25.7 0.00 0.00 0.00 41 1020.3
20260508140305 17 94 14.5 30.6 0.00 0.00 0.00 32 1020.2
20260508135305 17 32 14.5 30.6 0.00 0.00 0.00 40 1020.4
20260508134303 17 71 16.1 29.0 0.00 0.00 0.00 37 1020.4
20260508133745 17 89 12.9 27.4 0.00 0.00 0.00 37 1020.4
20260508132306 17 70 12.9 25.7 0.00 0.00 0.00 32 1020.5
20260508131305 17 77 11.3 29.0 0.00 0.00 0.00 38 1020.6
20260508130757 17 69 8.0 25.7 0.00 0.00 0.00 41 1020.5
20260508125748 17 18 14.5 27.4 0.00 0.00 0.00 33 1020.4
20260508124303 17 181 6.4 29.0 0.00 0.00 0.00 37 1020.6
20260508123745 17 82 9.7 38.6 0.00 0.00 0.00 41 1020.6
20260508122306 17 32 9.7 27.4 0.00 0.00 0.00 42 1020.7
20260508121317 17 58 11.3 22.5 0.00 0.00 0.00 44 1020.5